Time,TemperatureF,DewpointF,PressureIn,WindDirection,WindDirectionDegrees,WindSpeedMPH,WindSpeedGustMPH,Humidity,HourlyPrecipIn,Conditions,Clouds,dailyrainin,SoftwareType,DateUTC
2013-05-01 00:01:00,50.2,16.6,0.00,ENE,69,0.0,0.0,26,0.00,,---,0.00,VWS V12.07,2013-05-01 04:01:00,
2013-05-01 00:04:00,50.2,16.6,0.00,ENE,69,0.0,0.0,26,0.00,,---,0.00,VWS V12.07,2013-05-01 04:04:00,
2013-05-01 00:10:00,49.8,17.2,0.00,ENE,69,0.0,0.0,27,0.00,,---,0.00,VWS V12.07,2013-05-01 04:10:00,
2013-05-01 00:13:00,49.6,17.0,0.00,ENE,69,0.0,0.0,27,0.00,,---,0.00,VWS V12.07,2013-05-01 04:13:00,
2013-05-01 00:16:00,49.5,16.9,0.00,ENE,69,0.0,0.0,27,0.00,,---,0.00,VWS V12.07,2013-05-01 04:16:00,
2013-05-01 00:22:00,49.5,16.9,0.00,ENE,69,0.0,0.0,27,0.00,,---,0.00,VWS V12.07,2013-05-01 04:22:00,
2013-05-01 00:28:00,49.3,16.7,0.00,ENE,69,0.0,0.0,27,0.00,,---,0.00,VWS V12.07,2013-05-01 04:28:00,
2013-05-01 00:34:00,49.1,16.6,0.00,ENE,69,0.0,0.0,27,0.00,,---,0.00,VWS V12.07,2013-05-01 04:34:00,
2013-05-01 00:40:00,48.9,16.4,0.00,ENE,69,0.0,0.0,27,0.00,,---,0.00,VWS V12.07,2013-05-01 04:40:00,
2013-05-01 00:46:00,48.7,16.3,0.00,ENE,69,0.0,0.0,27,0.00,,---,0.00,VWS V12.07,2013-05-01 04:46:00,
2013-05-01 00:52:00,48.4,16.0,0.00,ENE,69,0.0,0.0,27,0.00,,---,0.00,VWS V12.07,2013-05-01 04:52:00,
2013-05-01 00:58:00,48.4,16.0,0.00,ENE,69,0.0,0.0,27,0.00,,---,0.00,VWS V12.07,2013-05-01 04:58:00,
2013-05-01 01:04:00,48.4,16.0,0.00,ENE,69,0.0,0.0,27,0.00,,---,0.00,VWS V12.07,2013-05-01 05:04:00,
2013-05-01 01:10:00,48.2,15.8,0.00,ENE,69,0.0,0.0,27,0.00,,---,0.00,VWS V12.07,2013-05-01 05:10:00,
2013-05-01 01:18:00,48.0,16.5,0.00,ENE,69,0.0,0.0,28,0.00,,---,0.00,VWS V12.07,2013-05-01 05:18:00,
2013-05-01 01:24:00,47.7,16.2,0.00,ENE,69,0.0,0.0,28,0.00,,---,0.00,VWS V12.07,2013-05-01 05:24:00,
2013-05-01 01:30:00,47.5,16.0,0.00,ENE,69,0.0,0.0,28,0.00,,---,0.00,VWS V12.07,2013-05-01 05:30:00,
2013-05-01 01:36:00,47.3,15.9,0.00,ENE,69,0.0,0.0,28,0.00,,---,0.00,VWS V12.07,2013-05-01 05:36:00,
2013-05-01 01:42:00,47.3,15.9,0.00,ENE,69,0.0,0.0,28,0.00,,---,0.00,VWS V12.07,2013-05-01 05:42:00,
2013-05-01 01:48:00,47.1,15.7,0.00,ENE,69,0.0,0.0,28,0.00,,---,0.00,VWS V12.07,2013-05-01 05:48:00,
2013-05-01 01:54:00,47.1,15.7,0.00,ENE,69,0.0,0.0,28,0.00,,---,0.00,VWS V12.07,2013-05-01 05:54:00,
2013-05-01 02:00:00,47.1,15.7,0.00,ENE,69,0.0,0.0,28,0.00,,---,0.00,VWS V12.07,2013-05-01 06:00:00,
2013-05-01 02:06:00,47.1,15.7,0.00,ENE,69,0.0,0.0,28,0.00,,---,0.00,VWS V12.07,2013-05-01 06:06:00,
2013-05-01 02:12:00,46.9,15.6,0.00,ENE,69,0.0,0.0,28,0.00,,---,0.00,VWS V12.07,2013-05-01 06:12:00,
2013-05-01 02:18:00,46.9,16.4,0.00,ENE,69,0.0,0.0,29,0.00,,---,0.00,VWS V12.07,2013-05-01 06:18:00,
2013-05-01 02:24:00,46.8,16.2,0.00,ENE,69,0.0,0.0,29,0.00,,---,0.00,VWS V12.07,2013-05-01 06:24:00,
2013-05-01 02:30:00,46.6,16.0,0.00,ENE,69,0.0,0.0,29,0.00,,---,0.00,VWS V12.07,2013-05-01 06:30:00,
2013-05-01 02:36:00,46.4,15.9,0.00,ENE,69,0.0,0.0,29,0.00,,---,0.00,VWS V12.07,2013-05-01 06:36:00,
2013-05-01 02:42:00,46.2,15.7,0.00,ENE,69,0.0,0.0,29,0.00,,---,0.00,VWS V12.07,2013-05-01 06:42:00,
2013-05-01 02:48:00,46.0,15.6,0.00,ENE,69,0.0,0.0,29,0.00,,---,0.00,VWS V12.07,2013-05-01 06:48:00,
2013-05-01 02:54:00,45.9,15.4,0.00,ENE,69,0.0,0.0,29,0.00,,---,0.00,VWS V12.07,2013-05-01 06:54:00,
2013-05-01 03:00:00,45.7,15.3,0.00,ENE,69,0.0,0.0,29,0.00,,---,0.00,VWS V12.07,2013-05-01 07:00:00,
2013-05-01 03:06:00,45.5,15.1,0.00,ENE,69,0.0,0.0,29,0.00,,---,0.00,VWS V12.07,2013-05-01 07:06:00,
2013-05-01 03:12:00,45.3,15.7,0.00,ENE,69,0.0,0.0,30,0.00,,---,0.00,VWS V12.07,2013-05-01 07:12:00,
2013-05-01 03:18:00,45.1,15.6,0.00,ENE,69,0.0,0.0,30,0.00,,---,0.00,VWS V12.07,2013-05-01 07:18:00,
2013-05-01 03:24:00,44.8,15.3,0.00,ENE,69,0.0,0.0,30,0.00,,---,0.00,VWS V12.07,2013-05-01 07:24:00,
2013-05-01 03:30:00,44.8,15.3,0.00,ENE,69,0.0,0.0,30,0.00,,---,0.00,VWS V12.07,2013-05-01 07:30:00,
2013-05-01 03:36:00,44.6,15.1,0.00,ENE,69,0.0,0.0,30,0.00,,---,0.00,VWS V12.07,2013-05-01 07:36:00,
2013-05-01 03:42:00,44.6,15.1,0.00,ENE,69,0.0,0.0,30,0.00,,---,0.00,VWS V12.07,2013-05-01 07:42:00,
2013-05-01 03:48:00,44.2,14.8,0.00,ENE,69,0.0,0.0,30,0.00,,---,0.00,VWS V12.07,2013-05-01 07:48:00,
2013-05-01 03:54:00,44.2,15.5,0.00,ENE,69,0.0,0.0,31,0.00,,---,0.00,VWS V12.07,2013-05-01 07:54:00,
2013-05-01 04:00:00,44.1,15.4,0.00,ENE,69,0.0,0.0,31,0.00,,---,0.00,VWS V12.07,2013-05-01 08:00:00,
2013-05-01 04:06:00,44.1,15.4,0.00,ENE,69,0.0,0.0,31,0.00,,---,0.00,VWS V12.07,2013-05-01 08:06:00,
2013-05-01 04:12:00,44.1,15.4,0.00,ENE,70,0.0,0.0,31,0.00,,---,0.00,VWS V12.07,2013-05-01 08:12:00,
2013-05-01 04:18:00,44.1,15.4,0.00,ENE,69,0.0,0.0,31,0.00,,---,0.00,VWS V12.07,2013-05-01 08:18:00,
2013-05-01 04:24:00,44.2,15.5,0.00,ENE,69,0.0,0.0,31,0.00,,---,0.00,VWS V12.07,2013-05-01 08:24:00,
2013-05-01 04:30:00,43.9,15.2,0.00,ENE,69,0.0,0.0,31,0.00,,---,0.00,VWS V12.07,2013-05-01 08:30:00,
2013-05-01 04:36:00,43.5,14.9,0.00,ENE,69,0.0,0.0,31,0.00,,---,0.00,VWS V12.07,2013-05-01 08:36:00,
2013-05-01 04:42:00,43.2,14.6,0.00,ENE,69,0.0,0.0,31,0.00,,---,0.00,VWS V12.07,2013-05-01 08:42:00,
2013-05-01 04:48:00,43.0,14.4,0.00,ENE,69,0.0,0.0,31,0.00,,---,0.00,VWS V12.07,2013-05-01 08:48:00,
2013-05-01 04:56:00,42.8,14.3,0.00,ENE,69,0.0,0.0,31,0.00,,---,0.00,VWS V12.07,2013-05-01 08:56:00,
2013-05-01 05:02:00,42.8,15.0,0.00,ENE,69,0.0,0.0,32,0.00,,---,0.00,VWS V12.07,2013-05-01 09:02:00,
2013-05-01 05:08:00,42.6,14.8,0.00,ENE,69,0.0,0.0,32,0.00,,---,0.00,VWS V12.07,2013-05-01 09:08:00,
2013-05-01 05:14:00,42.3,14.5,0.00,ENE,69,0.0,0.0,32,0.00,,---,0.00,VWS V12.07,2013-05-01 09:14:00,
2013-05-01 05:20:00,42.1,15.1,0.00,ENE,69,0.0,0.0,33,0.00,,---,0.00,VWS V12.07,2013-05-01 09:20:00,
2013-05-01 05:26:00,41.9,14.9,0.00,ENE,69,0.0,0.0,33,0.00,,---,0.00,VWS V12.07,2013-05-01 09:26:00,
2013-05-01 05:32:00,41.7,15.4,0.00,ENE,69,0.0,0.0,34,0.00,,---,0.00,VWS V12.07,2013-05-01 09:32:00,
2013-05-01 05:38:00,41.7,15.4,0.00,ENE,69,0.0,0.0,34,0.00,,---,0.00,VWS V12.07,2013-05-01 09:38:00,
2013-05-01 05:44:00,41.7,16.1,0.00,ENE,69,0.0,0.0,35,0.00,,---,0.00,VWS V12.07,2013-05-01 09:44:00,
2013-05-01 05:50:00,41.7,16.1,0.00,ENE,70,0.0,0.0,35,0.00,,---,0.00,VWS V12.07,2013-05-01 09:50:00,
2013-05-01 05:56:00,41.7,16.8,0.00,ENE,69,0.0,0.0,36,0.00,,---,0.00,VWS V12.07,2013-05-01 09:56:00,
2013-05-01 06:02:00,41.9,16.9,0.00,ENE,69,0.0,0.0,36,0.00,,---,0.00,VWS V12.07,2013-05-01 10:02:00,
2013-05-01 06:08:00,42.3,17.9,0.00,ENE,69,0.0,0.0,37,0.00,,---,0.00,VWS V12.07,2013-05-01 10:08:00,
2013-05-01 06:14:00,42.6,18.8,0.00,ENE,69,0.0,0.0,38,0.00,,---,0.00,VWS V12.07,2013-05-01 10:14:00,
2013-05-01 06:20:00,42.8,19.0,0.00,ENE,69,0.0,0.0,38,0.00,,---,0.00,VWS V12.07,2013-05-01 10:20:00,
2013-05-01 06:26:00,43.0,19.1,0.00,ENE,69,0.0,0.0,38,0.00,,---,0.00,VWS V12.07,2013-05-01 10:26:00,
2013-05-01 06:32:00,43.5,19.6,0.00,ENE,69,0.0,0.0,38,0.00,,---,0.00,VWS V12.07,2013-05-01 10:32:00,
2013-05-01 06:38:00,44.1,20.1,0.00,ENE,69,0.0,0.0,38,0.00,,---,0.00,VWS V12.07,2013-05-01 10:38:00,
2013-05-01 06:44:00,44.6,20.0,0.00,ENE,69,0.0,0.0,37,0.00,,---,0.00,VWS V12.07,2013-05-01 10:44:00,
2013-05-01 06:49:00,45.1,20.4,0.00,ENE,70,0.0,0.0,37,0.00,,---,0.00,VWS V12.07,2013-05-01 10:49:00,
2013-05-01 06:55:00,45.5,20.1,0.00,ENE,69,0.0,0.0,36,0.00,,---,0.00,VWS V12.07,2013-05-01 10:55:00,
2013-05-01 07:01:00,46.6,20.4,0.00,ENE,70,0.0,0.0,35,0.00,,---,0.00,VWS V12.07,2013-05-01 11:01:00,
2013-05-01 07:06:00,47.1,20.2,0.00,ENE,69,0.0,0.0,34,0.00,,---,0.00,VWS V12.07,2013-05-01 11:06:00,
2013-05-01 07:12:00,47.7,20.0,0.00,ENE,69,0.0,0.0,33,0.00,,---,0.00,VWS V12.07,2013-05-01 11:12:00,
2013-05-01 07:18:00,48.2,19.0,0.00,ENE,69,0.0,0.0,31,0.00,,---,0.00,VWS V12.07,2013-05-01 11:18:00,
2013-05-01 07:24:00,48.7,18.7,0.00,ENE,69,0.0,0.0,30,0.00,,---,0.00,VWS V12.07,2013-05-01 11:24:00,
2013-05-01 07:30:00,49.3,18.4,0.00,West,278,0.0,0.0,29,0.00,,---,0.00,VWS V12.07,2013-05-01 11:30:00,
2013-05-01 07:36:00,50.0,18.2,0.00,West,279,0.0,0.0,28,0.00,,---,0.00,VWS V12.07,2013-05-01 11:36:00,
2013-05-01 07:41:00,50.5,17.8,0.00,West,279,0.0,0.0,27,0.00,,---,0.00,VWS V12.07,2013-05-01 11:41:00,
2013-05-01 07:47:00,51.4,18.6,0.00,West,279,0.0,0.0,27,0.00,,---,0.00,VWS V12.07,2013-05-01 11:47:00,
2013-05-01 07:53:00,52.7,19.7,0.00,West,279,0.0,0.0,27,0.00,,---,0.00,VWS V12.07,2013-05-01 11:53:00,
2013-05-01 07:59:00,54.3,20.2,0.00,West,279,0.0,0.0,26,0.00,,---,0.00,VWS V12.07,2013-05-01 11:59:00,
2013-05-01 08:05:00,56.3,21.0,0.00,WNW,285,0.0,3.6,25,0.00,,---,0.00,VWS V12.07,2013-05-01 12:05:00,
2013-05-01 08:11:00,57.9,21.4,0.00,WNW,285,0.0,3.6,24,0.00,,---,0.00,VWS V12.07,2013-05-01 12:11:00,
2013-05-01 08:17:00,59.0,20.2,0.00,WNW,286,0.0,0.0,22,0.00,,---,0.00,VWS V12.07,2013-05-01 12:17:00,
2013-05-01 08:23:00,59.9,21.0,0.00,WNW,285,0.0,2.2,22,0.00,,---,0.00,VWS V12.07,2013-05-01 12:23:00,
2013-05-01 08:31:00,60.6,18.2,30.30,WNW,285,0.0,0.0,19,0.00,,---,0.00,VWS V12.07,2013-05-01 12:31:00,
2013-05-01 08:37:00,60.6,18.2,30.30,WNW,284,2.7,3.1,19,0.00,,---,0.00,VWS V12.07,2013-05-01 12:37:00,
2013-05-01 08:45:00,61.3,18.8,30.30,WNW,285,0.0,0.0,19,0.00,,---,0.00,VWS V12.07,2013-05-01 12:45:00,
2013-05-01 08:51:00,61.5,18.9,30.30,WNW,285,2.2,3.6,19,0.00,,---,0.00,VWS V12.07,2013-05-01 12:51:00,
2013-05-01 08:57:00,61.7,19.0,30.30,WNW,285,0.0,3.6,19,0.00,,---,0.00,VWS V12.07,2013-05-01 12:57:00,
2013-05-01 09:03:00,62.1,19.3,30.30,WNW,286,0.0,3.6,19,0.00,,---,0.00,VWS V12.07,2013-05-01 13:03:00,
2013-05-01 09:09:00,62.6,18.5,30.30,ENE,57,3.6,4.0,18,0.00,,---,0.00,VWS V12.07,2013-05-01 13:09:00,
2013-05-01 09:15:00,62.8,18.7,30.30,SE,132,3.6,3.6,18,0.00,,---,0.00,VWS V12.07,2013-05-01 13:15:00,
2013-05-01 09:21:00,63.0,18.8,30.30,ENE,76,0.0,3.6,18,0.00,,---,0.00,VWS V12.07,2013-05-01 13:21:00,
2013-05-01 09:27:00,63.3,19.1,30.30,ESE,119,0.0,4.0,18,0.00,,---,0.00,VWS V12.07,2013-05-01 13:27:00,
2013-05-01 09:34:00,64.2,19.9,30.30,ENE,59,3.6,4.9,18,0.00,,---,0.00,VWS V12.07,2013-05-01 13:34:00,
2013-05-01 09:39:00,63.9,19.6,30.30,NE,56,3.6,5.4,18,0.00,,---,0.00,VWS V12.07,2013-05-01 13:39:00,
2013-05-01 09:45:00,63.0,18.8,30.30,ENE,74,3.1,3.1,18,0.00,,---,0.00,VWS V12.07,2013-05-01 13:45:00,
2013-05-01 09:51:00,62.2,21.9,30.30,ENE,69,5.4,5.8,21,0.00,,---,0.00,VWS V12.07,2013-05-01 13:51:00,
2013-05-01 09:57:00,62.2,21.9,30.30,ENE,69,3.6,5.8,21,0.00,,---,0.00,VWS V12.07,2013-05-01 13:57:00,
2013-05-01 10:02:00,61.9,21.5,30.30,ENE,65,2.7,4.9,21,0.00,,---,0.00,VWS V12.07,2013-05-01 14:02:00,
2013-05-01 10:08:00,62.1,21.7,30.30,NE,46,3.1,4.9,21,0.00,,---,0.00,VWS V12.07,2013-05-01 14:08:00,
2013-05-01 10:14:00,62.2,19.5,30.30,NE,54,4.0,5.4,19,0.00,,---,0.00,VWS V12.07,2013-05-01 14:14:00,
2013-05-01 10:20:00,61.9,19.2,30.30,NE,49,3.6,6.3,19,0.00,,---,0.00,VWS V12.07,2013-05-01 14:20:00,
2013-05-01 10:26:00,61.0,18.5,30.33,NE,50,4.9,6.3,19,0.00,,---,0.00,VWS V12.07,2013-05-01 14:26:00,
2013-05-01 10:32:00,60.8,18.3,30.33,ENE,72,4.9,6.7,19,0.00,,---,0.00,VWS V12.07,2013-05-01 14:32:00,
2013-05-01 10:38:00,60.6,18.2,30.33,ENE,59,4.0,6.7,19,0.00,,---,0.00,VWS V12.07,2013-05-01 14:38:00,
2013-05-01 10:44:00,60.8,18.3,30.33,East,86,2.7,6.7,19,0.00,,---,0.00,VWS V12.07,2013-05-01 14:44:00,
2013-05-01 10:50:00,61.3,18.8,30.33,NE,50,3.1,5.4,19,0.00,,---,0.00,VWS V12.07,2013-05-01 14:50:00,
2013-05-01 10:56:00,61.5,18.9,30.33,SE,136,2.7,5.8,19,0.00,,---,0.00,VWS V12.07,2013-05-01 14:56:00,
2013-05-01 11:02:00,61.7,19.0,30.33,NE,40,4.9,4.9,19,0.00,,---,0.00,VWS V12.07,2013-05-01 15:02:00,
2013-05-01 11:08:00,62.1,19.3,30.33,ENE,62,4.0,5.8,19,0.00,,---,0.00,VWS V12.07,2013-05-01 15:08:00,
2013-05-01 11:14:00,62.1,19.3,30.33,ENE,59,5.8,8.1,19,0.00,,---,0.00,VWS V12.07,2013-05-01 15:14:00,
2013-05-01 11:20:00,62.1,19.3,30.33,ENE,58,4.0,5.8,19,0.00,,---,0.00,VWS V12.07,2013-05-01 15:20:00,
2013-05-01 11:26:00,62.2,19.5,30.30,ENE,69,3.6,5.8,19,0.00,,---,0.00,VWS V12.07,2013-05-01 15:26:00,
2013-05-01 11:32:00,62.4,19.6,30.30,ENE,66,6.3,6.7,19,0.00,,---,0.00,VWS V12.07,2013-05-01 15:32:00,
2013-05-01 11:38:00,62.6,18.5,30.30,ENE,66,5.8,6.7,18,0.00,,---,0.00,VWS V12.07,2013-05-01 15:38:00,
2013-05-01 11:44:00,63.1,19.0,30.30,NE,54,4.9,7.6,18,0.00,,---,0.00,VWS V12.07,2013-05-01 15:44:00,
2013-05-01 11:50:00,63.1,19.0,30.30,ENE,59,5.8,8.3,18,0.00,,---,0.00,VWS V12.07,2013-05-01 15:50:00,
2013-05-01 11:56:00,63.1,19.0,30.30,ENE,62,3.1,8.3,18,0.00,,---,0.00,VWS V12.07,2013-05-01 15:56:00,
2013-05-01 12:02:00,64.0,19.7,30.30,SSE,160,3.6,8.7,18,0.00,,---,0.00,VWS V12.07,2013-05-01 16:02:00,
2013-05-01 12:08:00,64.8,20.3,30.30,ENE,65,6.3,8.7,18,0.00,,---,0.00,VWS V12.07,2013-05-01 16:08:00,
2013-05-01 12:14:00,64.6,20.1,30.30,ENE,59,5.4,8.7,18,0.00,,---,0.00,VWS V12.07,2013-05-01 16:14:00,
2013-05-01 12:20:00,64.2,19.9,30.30,ENE,71,4.0,8.1,18,0.00,,---,0.00,VWS V12.07,2013-05-01 16:20:00,
2013-05-01 12:26:00,64.2,19.9,30.30,NE,53,3.6,8.1,18,0.00,,---,0.00,VWS V12.07,2013-05-01 16:26:00,
2013-05-01 12:32:00,64.8,20.3,30.30,ENE,70,7.6,7.6,18,0.00,,---,0.00,VWS V12.07,2013-05-01 16:32:00,
2013-05-01 12:38:00,64.6,20.1,30.30,NE,56,6.3,10.1,18,0.00,,---,0.00,VWS V12.07,2013-05-01 16:38:00,
2013-05-01 12:43:00,64.4,20.0,30.30,ESE,120,2.7,10.1,18,0.00,,---,0.00,VWS V12.07,2013-05-01 16:43:00,
2013-05-01 12:49:00,64.4,20.0,30.30,ENE,74,8.3,9.2,18,0.00,,---,0.00,VWS V12.07,2013-05-01 16:49:00,
2013-05-01 12:55:00,63.9,19.6,30.30,NE,56,7.2,9.2,18,0.00,,---,0.00,VWS V12.07,2013-05-01 16:55:00,
2013-05-01 13:01:00,63.9,19.6,30.30,ENE,63,4.0,8.3,18,0.00,,---,0.00,VWS V12.07,2013-05-01 17:01:00,
2013-05-01 13:07:00,63.9,19.6,30.30,ENE,60,6.3,9.6,18,0.00,,---,0.00,VWS V12.07,2013-05-01 17:07:00,
2013-05-01 13:13:00,63.5,19.3,30.30,East,83,5.4,9.6,18,0.00,,---,0.00,VWS V12.07,2013-05-01 17:13:00,
2013-05-01 13:21:00,63.9,19.6,30.30,ENE,73,2.2,7.6,18,0.00,,---,0.00,VWS V12.07,2013-05-01 17:21:00,
2013-05-01 13:27:00,64.9,20.4,30.30,SSE,152,3.6,7.6,18,0.00,,---,0.00,VWS V12.07,2013-05-01 17:27:00,
2013-05-01 13:33:00,65.7,21.0,30.30,NE,41,3.6,4.0,18,0.00,,---,0.00,VWS V12.07,2013-05-01 17:33:00,
2013-05-01 13:39:00,65.7,21.0,30.30,East,100,3.1,8.1,18,0.00,,---,0.00,VWS V12.07,2013-05-01 17:39:00,
2013-05-01 13:45:00,65.7,21.0,30.30,SE,143,3.1,3.1,18,0.00,,---,0.00,VWS V12.07,2013-05-01 17:45:00,
2013-05-01 13:51:00,65.3,20.7,30.30,NE,56,3.6,7.2,18,0.00,,---,0.00,VWS V12.07,2013-05-01 17:51:00,
2013-05-01 13:57:00,64.8,20.3,30.30,ENE,70,3.1,7.2,18,0.00,,---,0.00,VWS V12.07,2013-05-01 17:57:00,
2013-05-01 14:04:00,64.8,20.3,30.30,ENE,74,4.0,7.6,18,0.00,,---,0.00,VWS V12.07,2013-05-01 18:04:00,
2013-05-01 14:10:00,65.3,20.7,30.30,NE,52,7.6,8.7,18,0.00,,---,0.00,VWS V12.07,2013-05-01 18:10:00,
2013-05-01 14:15:00,64.4,20.0,30.30,ENE,73,7.6,8.1,18,0.00,,---,0.00,VWS V12.07,2013-05-01 18:15:00,
2013-05-01 14:21:00,63.5,19.3,30.30,NE,51,6.3,8.7,18,0.00,,---,0.00,VWS V12.07,2013-05-01 18:21:00,
2013-05-01 14:27:00,63.1,19.0,30.30,ENE,59,6.3,8.7,18,0.00,,---,0.00,VWS V12.07,2013-05-01 18:27:00,
2013-05-01 14:33:00,63.3,19.1,30.30,NE,49,4.0,7.6,18,0.00,,---,0.00,VWS V12.07,2013-05-01 18:33:00,
2013-05-01 14:39:00,64.2,19.9,30.30,East,83,5.8,8.1,18,0.00,,---,0.00,VWS V12.07,2013-05-01 18:39:00,
2013-05-01 14:45:00,63.9,19.6,30.30,ENE,71,3.1,3.1,18,0.00,,---,0.00,VWS V12.07,2013-05-01 18:45:00,
2013-05-01 14:51:00,64.2,19.9,30.30,ENE,77,5.8,7.6,18,0.00,,---,0.00,VWS V12.07,2013-05-01 18:51:00,
2013-05-01 14:57:00,63.9,19.6,30.30,ENE,64,5.8,8.7,18,0.00,,---,0.00,VWS V12.07,2013-05-01 18:57:00,
2013-05-01 15:04:00,63.9,19.6,30.30,ENE,68,5.8,10.5,18,0.00,,---,0.00,VWS V12.07,2013-05-01 19:04:00,
2013-05-01 15:10:00,63.7,19.4,30.30,NE,55,3.6,10.5,18,0.00,,---,0.00,VWS V12.07,2013-05-01 19:10:00,
2013-05-01 15:16:00,63.7,19.4,30.30,NE,54,4.9,10.1,18,0.00,,---,0.00,VWS V12.07,2013-05-01 19:16:00,
2013-05-01 15:22:00,63.3,19.1,30.30,ENE,63,6.3,10.1,18,0.00,,---,0.00,VWS V12.07,2013-05-01 19:22:00,
2013-05-01 15:29:00,63.3,19.1,30.30,ESE,107,3.1,10.5,18,0.00,,---,0.00,VWS V12.07,2013-05-01 19:29:00,
2013-05-01 15:35:00,64.0,19.7,30.30,ENE,70,4.9,8.3,18,0.00,,---,0.00,VWS V12.07,2013-05-01 19:35:00,
2013-05-01 15:41:00,63.9,19.6,30.30,ENE,77,6.3,8.7,18,0.00,,---,0.00,VWS V12.07,2013-05-01 19:41:00,
2013-05-01 15:47:00,63.7,19.4,30.30,NE,51,3.1,5.8,18,0.00,,---,0.00,VWS V12.07,2013-05-01 19:47:00,
2013-05-01 15:53:00,64.0,19.7,30.30,NE,46,5.4,7.6,18,0.00,,---,0.00,VWS V12.07,2013-05-01 19:53:00,
2013-05-01 15:59:00,64.2,19.9,30.30,NE,43,7.6,7.6,18,0.00,,---,0.00,VWS V12.07,2013-05-01 19:59:00,
2013-05-01 16:05:00,64.2,19.9,30.30,ENE,77,4.0,6.3,18,0.00,,---,0.00,VWS V12.07,2013-05-01 20:05:00,
2013-05-01 16:11:00,64.0,19.7,30.30,ENE,63,6.3,7.6,18,0.00,,---,0.00,VWS V12.07,2013-05-01 20:11:00,
2013-05-01 16:17:00,64.0,19.7,30.30,NE,41,6.3,8.1,18,0.00,,---,0.00,VWS V12.07,2013-05-01 20:17:00,
2013-05-01 16:23:00,64.0,19.7,30.30,ENE,67,4.9,8.1,18,0.00,,---,0.00,VWS V12.07,2013-05-01 20:23:00,
2013-05-01 16:31:00,63.7,19.4,30.30,NE,56,5.4,8.7,18,0.00,,---,0.00,VWS V12.07,2013-05-01 20:31:00,
2013-05-01 16:37:00,63.7,19.4,30.30,NE,38,4.0,8.7,18,0.00,,---,0.00,VWS V12.07,2013-05-01 20:37:00,
2013-05-01 16:43:00,63.5,19.3,30.27,NE,43,4.9,8.7,18,0.00,,---,0.00,VWS V12.07,2013-05-01 20:43:00,
2013-05-01 16:48:00,63.5,19.3,30.27,ENE,70,3.6,6.3,18,0.00,,---,0.00,VWS V12.07,2013-05-01 20:48:00,
2013-05-01 16:54:00,63.3,19.1,30.30,ENE,57,4.0,7.6,18,0.00,,---,0.00,VWS V12.07,2013-05-01 20:54:00,
2013-05-01 17:00:00,63.1,19.0,30.30,East,85,5.4,5.4,18,0.00,,---,0.00,VWS V12.07,2013-05-01 21:00:00,
2013-05-01 17:07:00,62.6,18.5,30.30,NE,51,6.3,8.3,18,0.00,,---,0.00,VWS V12.07,2013-05-01 21:07:00,
2013-05-01 17:14:00,62.6,18.5,30.30,ENE,70,5.4,8.3,18,0.00,,---,0.00,VWS V12.07,2013-05-01 21:14:00,
2013-05-01 17:20:00,62.6,18.5,30.30,NE,49,5.4,6.3,18,0.00,,---,0.00,VWS V12.07,2013-05-01 21:20:00,
2013-05-01 17:26:00,62.4,19.6,30.30,East,82,4.9,6.7,19,0.00,,---,0.00,VWS V12.07,2013-05-01 21:26:00,
2013-05-01 17:32:00,62.2,19.5,30.30,ESE,108,3.1,6.3,19,0.00,,---,0.00,VWS V12.07,2013-05-01 21:32:00,
2013-05-01 17:38:00,62.1,19.3,30.30,ENE,71,4.0,8.3,19,0.00,,---,0.00,VWS V12.07,2013-05-01 21:38:00,
2013-05-01 17:44:00,61.7,19.0,30.30,ENE,75,4.0,8.3,19,0.00,,---,0.00,VWS V12.07,2013-05-01 21:44:00,
2013-05-01 17:50:00,61.3,18.8,30.30,ESE,105,3.1,5.8,19,0.00,,---,0.00,VWS V12.07,2013-05-01 21:50:00,
2013-05-01 17:56:00,61.2,18.6,30.30,ENE,70,3.6,5.8,19,0.00,,---,0.00,VWS V12.07,2013-05-01 21:56:00,
2013-05-01 18:02:00,60.8,20.6,30.30,NE,56,6.3,6.3,21,0.00,,---,0.00,VWS V12.07,2013-05-01 22:02:00,
2013-05-01 18:09:00,61.0,20.8,30.30,ENE,64,4.0,6.3,21,0.00,,---,0.00,VWS V12.07,2013-05-01 22:09:00,
2013-05-01 18:15:00,60.6,21.6,30.30,East,80,4.0,4.0,22,0.00,,---,0.00,VWS V12.07,2013-05-01 22:15:00,
2013-05-01 18:21:00,60.3,21.3,30.30,NE,55,3.6,5.8,22,0.00,,---,0.00,VWS V12.07,2013-05-01 22:21:00,
2013-05-01 18:27:00,60.1,21.1,30.30,ENE,64,0.0,5.8,22,0.00,,---,0.00,VWS V12.07,2013-05-01 22:27:00,
2013-05-01 18:34:00,60.1,21.1,30.30,East,94,3.6,3.6,22,0.00,,---,0.00,VWS V12.07,2013-05-01 22:34:00,
2013-05-01 18:40:00,60.1,21.1,30.30,ENE,69,2.7,4.0,22,0.00,,---,0.00,VWS V12.07,2013-05-01 22:40:00,
2013-05-01 18:46:00,59.7,20.8,30.30,ENE,60,4.0,4.0,22,0.00,,---,0.00,VWS V12.07,2013-05-01 22:46:00,
2013-05-01 18:52:00,59.5,20.7,30.30,NE,55,3.1,5.8,22,0.00,,---,0.00,VWS V12.07,2013-05-01 22:52:00,
2013-05-01 18:58:00,59.4,20.5,30.30,NE,49,4.0,5.8,22,0.00,,---,0.00,VWS V12.07,2013-05-01 22:58:00,
2013-05-01 19:04:00,59.2,20.4,30.30,ENE,67,2.2,4.9,22,0.00,,---,0.00,VWS V12.07,2013-05-01 23:04:00,
2013-05-01 19:10:00,59.0,20.2,30.30,ENE,65,2.7,4.9,22,0.00,,---,0.00,VWS V12.07,2013-05-01 23:10:00,
2013-05-01 19:16:00,58.8,22.1,30.30,ENE,61,2.7,2.7,24,0.00,,---,0.00,VWS V12.07,2013-05-01 23:16:00,
2013-05-01 19:22:00,58.6,22.0,30.30,ENE,60,2.2,3.6,24,0.00,,---,0.00,VWS V12.07,2013-05-01 23:22:00,
2013-05-01 19:27:00,58.5,21.8,30.30,ENE,60,0.0,3.6,24,0.00,,---,0.00,VWS V12.07,2013-05-01 23:27:00,
2013-05-01 19:33:00,58.3,21.7,30.30,ENE,61,0.0,0.0,24,0.00,,---,0.00,VWS V12.07,2013-05-01 23:33:00,
2013-05-01 19:39:00,58.1,21.5,30.30,ENE,60,0.0,0.0,24,0.00,,---,0.00,VWS V12.07,2013-05-01 23:39:00,
2013-05-01 19:45:00,57.9,21.4,30.30,ENE,61,0.0,0.0,24,0.00,,---,0.00,VWS V12.07,2013-05-01 23:45:00,
2013-05-01 19:51:00,57.6,21.1,30.30,ENE,61,0.0,0.0,24,0.00,,---,0.00,VWS V12.07,2013-05-01 23:51:00,
2013-05-01 19:57:00,57.4,20.9,30.30,ENE,60,0.0,0.0,24,0.00,,---,0.00,VWS V12.07,2013-05-01 23:57:00,
2013-05-01 20:03:00,57.2,20.8,30.30,ENE,60,0.0,0.0,24,0.00,,---,0.00,VWS V12.07,2013-05-02 00:03:00,
2013-05-01 20:09:00,57.0,21.6,30.30,ENE,60,0.0,0.0,25,0.00,,---,0.00,VWS V12.07,2013-05-02 00:09:00,
2013-05-01 20:15:00,56.8,21.4,30.30,ENE,60,0.0,0.0,25,0.00,,---,0.00,VWS V12.07,2013-05-02 00:15:00,
2013-05-01 20:22:00,56.7,21.3,30.30,ENE,60,0.0,0.0,25,0.00,,---,0.00,VWS V12.07,2013-05-02 00:22:00,
2013-05-01 20:28:00,56.3,21.0,30.30,ENE,61,0.0,0.0,25,0.00,,---,0.00,VWS V12.07,2013-05-02 00:28:00,
2013-05-01 20:34:00,56.1,21.7,30.30,ENE,60,0.0,0.0,26,0.00,,---,0.00,VWS V12.07,2013-05-02 00:34:00,
2013-05-01 20:40:00,56.1,21.7,30.30,ENE,61,0.0,0.0,26,0.00,,---,0.00,VWS V12.07,2013-05-02 00:40:00,
2013-05-01 20:47:00,56.1,21.7,30.30,ENE,60,0.0,0.0,26,0.00,,---,0.00,VWS V12.07,2013-05-02 00:47:00,
2013-05-01 20:53:00,56.3,21.9,30.30,ENE,60,0.0,0.0,26,0.00,,---,0.00,VWS V12.07,2013-05-02 00:53:00,
2013-05-01 20:59:00,56.1,21.7,30.30,ENE,61,0.0,0.0,26,0.00,,---,0.00,VWS V12.07,2013-05-02 00:59:00,
2013-05-01 21:05:00,55.9,21.6,30.30,ENE,61,0.0,0.0,26,0.00,,---,0.00,VWS V12.07,2013-05-02 01:05:00,
2013-05-01 21:11:00,55.2,21.8,30.30,ENE,61,0.0,0.0,27,0.00,,---,0.00,VWS V12.07,2013-05-02 01:11:00,
2013-05-01 21:19:00,54.9,21.5,30.30,ENE,60,0.0,2.2,27,0.00,,---,0.00,VWS V12.07,2013-05-02 01:19:00,
2013-05-01 21:26:00,54.7,22.2,30.30,ENE,61,0.0,2.2,28,0.00,,---,0.00,VWS V12.07,2013-05-02 01:26:00,
2013-05-01 21:32:00,54.5,22.1,30.30,ENE,61,0.0,0.0,28,0.00,,---,0.00,VWS V12.07,2013-05-02 01:32:00,
2013-05-01 21:38:00,54.3,21.9,30.30,ENE,60,0.0,0.0,28,0.00,,---,0.00,VWS V12.07,2013-05-02 01:38:00,
2013-05-01 21:44:00,54.1,21.8,30.30,ENE,60,0.0,0.0,28,0.00,,---,0.00,VWS V12.07,2013-05-02 01:44:00,
2013-05-01 21:50:00,54.0,22.5,30.30,ENE,61,0.0,0.0,29,0.00,,---,0.00,VWS V12.07,2013-05-02 01:50:00,
2013-05-01 21:56:00,53.8,22.3,30.27,ENE,61,0.0,0.0,29,0.00,,---,0.00,VWS V12.07,2013-05-02 01:56:00,
2013-05-01 22:02:00,53.6,22.1,30.27,ENE,61,0.0,0.0,29,0.00,,---,0.00,VWS V12.07,2013-05-02 02:02:00,
2013-05-01 22:08:00,53.4,22.8,30.27,ENE,60,0.0,0.0,30,0.00,,---,0.00,VWS V12.07,2013-05-02 02:08:00,
2013-05-01 22:14:00,53.4,22.8,30.30,ENE,60,0.0,0.0,30,0.00,,---,0.00,VWS V12.07,2013-05-02 02:14:00,
2013-05-01 22:20:00,53.2,22.6,30.30,ENE,60,0.0,0.0,30,0.00,,---,0.00,VWS V12.07,2013-05-02 02:20:00,
2013-05-01 22:26:00,53.2,23.4,30.30,ENE,60,0.0,0.0,31,0.00,,---,0.00,VWS V12.07,2013-05-02 02:26:00,
2013-05-01 22:32:00,53.2,23.4,30.30,ENE,61,0.0,0.0,31,0.00,,---,0.00,VWS V12.07,2013-05-02 02:32:00,
2013-05-01 22:38:00,53.1,23.2,30.30,ENE,60,0.0,0.0,31,0.00,,---,0.00,VWS V12.07,2013-05-02 02:38:00,
2013-05-01 22:44:00,52.9,23.1,30.30,ENE,61,0.0,0.0,31,0.00,,---,0.00,VWS V12.07,2013-05-02 02:44:00,
2013-05-01 22:50:00,52.7,22.9,30.30,ENE,61,0.0,0.0,31,0.00,,---,0.00,VWS V12.07,2013-05-02 02:50:00,
2013-05-01 22:57:00,52.2,22.5,30.27,ENE,60,0.0,0.0,31,0.00,,---,0.00,VWS V12.07,2013-05-02 02:57:00,
2013-05-01 23:04:00,52.0,22.3,30.27,ENE,60,0.0,0.0,31,0.00,,---,0.00,VWS V12.07,2013-05-02 03:04:00,
2013-05-01 23:10:00,52.0,22.3,30.30,ENE,61,0.0,0.0,31,0.00,,---,0.00,VWS V12.07,2013-05-02 03:10:00,
2013-05-01 23:18:00,51.8,22.9,30.30,ENE,60,0.0,0.0,32,0.00,,---,0.00,VWS V12.07,2013-05-02 03:18:00,
2013-05-01 23:24:00,51.6,22.7,30.30,ENE,60,0.0,0.0,32,0.00,,---,0.00,VWS V12.07,2013-05-02 03:24:00,
2013-05-01 23:29:00,51.6,23.5,30.30,ENE,60,0.0,0.0,33,0.00,,---,0.00,VWS V12.07,2013-05-02 03:29:00,
2013-05-01 23:35:00,51.4,23.3,30.30,ENE,60,0.0,0.0,33,0.00,,---,0.00,VWS V12.07,2013-05-02 03:35:00,
2013-05-01 23:41:00,51.3,23.2,30.30,ENE,60,0.0,0.0,33,0.00,,---,0.00,VWS V12.07,2013-05-02 03:41:00,
2013-05-01 23:47:00,51.3,23.9,30.30,ENE,61,0.0,0.0,34,0.00,,---,0.00,VWS V12.07,2013-05-02 03:47:00,
2013-05-01 23:53:00,51.1,23.7,30.30,ENE,61,0.0,0.0,34,0.00,,---,0.00,VWS V12.07,2013-05-02 03:53:00,
2013-05-01 23:59:00,51.1,23.7,30.30,ENE,60,0.0,0.0,34,0.00,,---,0.00,VWS V12.07,2013-05-02 03:59:00,